sat.trackr.live / text

‹ back to catalog

STARLINK-34475

NORAD 64603 · 2025-137K

PAYLOAD ACTIVE UNKNOWN

§ Identity

Operator
Country
US
Launch date
2025-06-25
Launch site
AFETR
Launch vehicle
Mass (kg)
RCS (m²)

Purposes: comms

External: N2YO · Heavens-Above · Gunter

§ Orbital elements

Epoch: 2026-09-20T22:44:54.824064Z

Period
93.90 min
Inclination
53.1572°
Eccentricity
0.0001265
Mean motion
15.33568607 rev/d
Perigee alt
464.3 km
Apogee alt
466.0 km
Semi-major
6,843.3 km
B*
6.6859e-4
RAAN
145.8828°
Arg perigee
81.5172°
Mean anomaly
278.5974°
Rev number
7,066

§ Raw data

STARLINK-344751 64603U 25137K   26263.94785676  .00021693  00000+0  66859-3 0  99952 64603  53.1572 145.8828 0001265  81.5172 278.5974 15.33568607 70663

JSON: /api/v1/satellites/64603 · /tle

For live sub-satellite position, see the globe view (requires WebGL).

§ Visibility from observer

Set your observer location to see the next 7 days of passes ≥ 10°. The values pass through the URL so the page stays shareable.

No JS? Fill the form by hand. The geolocation button needs JavaScript.